Location: Asheville, NC
(35.6000°N, 82.5500°W)
Time: 03:14:48
(UTC-04:00)

Vanguard 1 Rocket - Pass Details

Date: 09 March 2018
Orbit: 653 x 4224 km, 34.3° (Epoch: 19 June)

Event Time Altitude Azimuth Distance (km) Brightness Sun altitude
Rises 23:41:50 0° 281° (WNW) 5,941 11.8 -56.1°
Reaches altitude 10° 23:45:01 10° 280° (W) 5,299 11.4 -56.4°
Enters shadow 23:54:21 46° 269° (W) 3,984 10.4 -57.1°
Exits shadow 00:31:48 - 120° (ESE) 7,759 11.9 -58.8°
Sets 00:34:36 0° 119° (ESE) 8,200 12.1 -58.9°
